Total_Precipitation_Accumulation
0.00 0.00 0.07 0.16 0.11 0.03 0.00 0.01 0.00 0.00 0.03 0.07 0.11 0.10 0.28 0.55 0.02 0.05 0.11 0.10 0.07 0.12 0.30 0.51 0.39 0.25 0.22 0.24 0.26 0.21 0.10 0.05 0.03 0.02 0.02 0.01 0.01 0.03 0.05 0.03 0.02 0.01 0.02 0.03 0.01 0.00 0.00 0.01 0.00
0.00 0.04 0.10 0.09 0.01 0.00 0.00 0.00 0.04 0.02 0.00 0.05 0.03 0.05 0.03 0.01 0.00 0.00 0.06 0.10 0.04 0.05 0.15 0.22 0.35 0.27 0.16 0.13 0.15 0.12 0.03 0.00 0.01 0.02 0.03 0.01 0.01 0.06 0.02 0.01 0.02 0.02 0.02 0.01 0.00 0.00 0.00 0.00 0.02
0.00 0.02 0.07 0.03 0.00 0.00 0.00 0.00 0.00 0.00 0.01 0.03 0.02 0.00 0.00 0.00 0.00 0.00 0.00 0.00 0.03 0.04 0.09 0.11 0.23 0.20 0.09 0.07 0.06 0.06 0.02 0.00 0.01 0.02 0.01 0.01 0.04 0.14 0.10 0.03 0.06 0.02 0.01 0.00 0.00 0.00 0.00 0.00 0.02
0.00 0.01 0.01 0.00 0.00 0.00 0.00 0.00 0.00 0.00 0.00 0.00 0.03 0.00 0.00 0.02 0.00 0.00 0.00 0.01 0.02 0.03 0.05 0.09 0.17 0.18 0.07 0.05 0.06 0.04 0.03 0.00 0.00 0.02 0.03 0.04 0.09 0.05 0.00 0.00 0.00 0.00 0.00 0.00 0.00 0.00 0.00 0.00 0.03
0.05 0.06 0.00 0.00 0.00 0.00 0.00 0.00 0.00 0.00 0.00 0.00 0.00 0.00 0.01 0.00 0.00 0.00 0.00 0.01 0.02 0.01 0.05 0.07 0.22 0.19 0.12 0.06 0.02 0.02 0.02 0.00 0.00 0.01 0.02 0.02 0.04 0.01 0.00 0.00 0.00 0.00 0.00 0.00 0.00 0.00 0.00 0.00 0.00
0.05 0.01 0.01 0.00 0.00 0.00 0.00 0.00 0.00 0.00 0.00 0.00 0.00 0.00 0.02 0.01 0.00 0.00 0.00 0.01 0.00 0.01 0.02 0.02 0.15 0.21 0.16 0.11 0.02 0.01 0.01 0.00 0.00 0.04 0.00 0.00 0.01 0.01 0.00 0.00 0.00 0.00 0.00 0.00 0.00 0.04 0.02 0.00 0.01
0.07 0.02 0.03 0.00 0.02 0.01 0.05 0.00 0.00 0.00 0.00 0.00 0.00 0.00 0.02 0.01 0.00 0.00 0.00 0.01 0.01 0.01 0.01 0.01 0.03 0.08 0.13 0.17 0.12 0.04 0.01 0.00 0.01 0.01 0.00 0.01 0.01 0.00 0.02 0.03 0.03 0.01 0.01 0.00 0.04 0.11 0.10 0.08 0.06
0.03 0.00 0.01 0.03 0.00 0.00 0.00 0.00 0.00 0.00 0.00 0.00 0.00 0.00 0.01 0.00 0.00 0.00 0.00 0.01 0.00 0.00 0.01 0.03 0.04 0.02 0.00 0.02 0.18 0.18 0.06 0.01 0.02 0.01 0.00 0.00 0.03 0.11 0.14 0.15 0.17 0.14 0.14 0.08 0.11 0.22 0.19 0.12 0.12
0.00 0.01 0.01 0.06 0.02 0.00 0.01 0.01 0.00 0.00 0.00 0.00 0.00 0.00 0.00 0.00 0.00 0.00 0.00 0.00 0.01 0.01 0.01 0.01 0.01 0.00 0.05 0.01 0.01 0.07 0.02 0.00 0.01 0.00 0.00 0.05 0.12 0.51 0.84 0.75 0.24 0.14 0.20 0.17 0.22 0.24 0.21 0.21 0.16
0.00 0.00 0.01 0.02 0.02 0.00 0.12 0.02 0.00 0.00 0.00 0.00 0.00 0.00 0.00 0.00 0.00 0.00 0.00 0.00 0.00 0.00 0.00 0.00 0.00 0.00 0.01 0.02 0.01 0.00 0.00 0.00 0.00 0.00 0.07 0.09 0.15 0.27 0.31 0.37 0.20 0.17 0.15 0.27 0.36 0.32 0.26 0.16 0.09
0.00 0.00 0.00 0.00 0.01 0.00 0.01 0.01 0.03 0.30 0.04 0.00 0.00 0.00 0.00 0.00 0.00 0.00 0.00 0.00 0.00 0.00 0.00 0.00 0.01 0.00 0.01 0.12 0.05 0.02 0.01 0.00 0.00 0.00 0.02 0.08 0.08 0.09 0.07 0.05 0.08 0.06 0.15 0.09 0.12 0.16 0.09 0.06 0.05
0.00 0.01 0.00 0.00 0.00 0.01 0.00 0.00 0.00 0.36 0.10 0.00 0.00 0.00 0.00 0.00 0.00 0.00 0.00 0.00 0.00 0.00 0.00 0.00 0.00 0.02 0.02 0.01 0.00 0.02 0.01 0.01 0.01 0.00 0.02 0.09 0.03 0.03 0.03 0.03 0.04 0.03 0.04 0.08 0.01 0.05 0.05 0.04 0.03
0.00 0.00 0.00 0.00 0.00 0.00 0.00 0.00 0.00 0.00 0.01 0.00 0.00 0.00 0.00 0.00 0.00 0.00 0.00 0.00 0.00 0.00 0.00 0.00 0.00 0.02 0.03 0.03 0.04 0.01 0.00 0.01 0.02 0.00 0.00 0.00 0.01 0.02 0.07 0.09 0.17 0.12 0.06 0.08 0.19 0.16 0.12 0.02 0.01
0.00 0.00 0.00 0.00 0.00 0.00 0.00 0.00 0.00 0.00 0.00 0.00 0.00 0.00 0.00 0.00 0.00 0.00 0.00 0.00 0.00 0.00 0.00 0.00 0.00 0.01 0.07 0.11 0.07 0.05 0.02 0.02 0.02 0.02 0.00 0.00 0.02 0.03 0.32 0.19 0.10 0.15 0.10 0.09 0.24 0.20 0.10 0.08 0.00
0.00 0.00 0.00 0.00 0.00 0.00 0.00 0.00 0.00 0.00 0.00 0.00 0.00 0.00 0.00 0.00 0.00 0.00 0.00 0.00 0.00 0.00 0.00 0.00 0.00 0.03 0.06 0.08 0.11 0.10 0.03 0.02 0.04 0.13 0.05 0.14 0.11 0.09 0.63 0.28 0.28 0.11 0.09 0.08 0.09 0.09 0.09 0.04 0.01
0.00 0.00 0.00 0.00 0.00 0.00 0.06 0.01 0.00 0.00 0.00 0.00 0.00 0.00 0.00 0.00 0.00 0.00 0.00 0.00 0.00 0.00 0.00 0.01 0.00 0.00 0.05 0.09 0.08 0.06 0.04 0.02 0.04 0.18 0.09 0.24 0.18 0.41 0.45 0.42 0.32 0.16 0.17 0.08 0.21 0.14 0.07 0.04 0.01
0.00 0.00 0.00 0.00 0.00 0.00 0.10 0.01 0.00 0.00 0.00 0.00 0.00 0.00 0.00 0.00 0.00 0.00 0.00 0.00 0.00 0.00 0.00 0.00 0.00 0.00 0.07 0.09 0.04 0.05 0.11 0.12 0.03 0.13 0.20 0.16 0.25 0.33 0.39 0.44 0.28 0.20 0.24 0.26 0.12 0.09 0.11 0.10 0.04
0.00 0.00 0.00 0.00 0.00 0.00 0.00 0.00 0.00 0.00 0.00 0.00 0.00 0.00 0.00 0.00 0.00 0.00 0.00 0.00 0.00 0.00 0.00 0.00 0.00 0.00 0.05 0.18 0.24 0.29 0.29 0.24 0.06 0.16 0.30 0.24 0.41 0.33 0.39 0.42 0.23 0.24 0.17 0.11 0.12 0.07 0.04 0.02 0.03
0.00 0.00 0.00 0.00 0.00 0.00 0.00 0.00 0.00 0.00 0.00 0.00 0.00 0.00 0.00 0.00 0.00 0.00 0.00 0.00 0.00 0.00 0.00 0.00 0.01 0.03 0.04 0.11 0.12 0.14 0.15 0.16 0.12 0.19 0.18 0.21 0.27 0.24 0.23 0.19 0.16 0.17 0.09 0.05 0.05 0.03 0.03 0.02 0.06
0.00 0.00 0.00 0.00 0.00 0.00 0.00 0.00 0.00 0.00 0.00 0.00 0.00 0.00 0.00 0.00 0.00 0.00 0.00 0.00 0.00 0.00 0.00 0.00 0.00 0.01 0.04 0.10 0.09 0.08 0.04 0.04 0.05 0.02 0.02 0.05 0.03 0.06 0.05 0.03 0.01 0.01 0.00 0.02 0.02 0.03 0.05 0.04 0.08
0.00 0.00 0.00 0.00 0.00 0.00 0.00 0.00 0.02 0.05 0.00 0.00 0.00 0.00 0.00 0.00 0.00 0.00 0.00 0.00 0.00 0.00 0.00 0.00 0.00 0.01 0.05 0.04 0.03 0.03 0.01 0.00 0.00 0.00 0.01 0.01 0.00 0.02 0.01 0.00 0.00 0.00 0.01 0.01 0.04 0.06 0.09 0.07 0.06
0.00 0.00 0.00 0.00 0.00 0.00 0.00 0.00 0.00 0.00 0.00 0.00 0.00 0.00 0.00 0.00 0.00 0.00 0.00 0.00 0.00 0.00 0.00 0.00 0.00 0.00 0.00 0.00 0.00 0.00 0.00 0.00 0.00 0.00 0.00 0.00 0.00 0.00 0.00 0.00 0.01 0.02 0.01 0.02 0.06 0.05 0.07 0.11 0.07
0.00 0.00 0.00 0.00 0.00 0.00 0.00 0.00 0.00 0.01 0.01 0.00 0.00 0.00 0.00 0.00 0.00 0.00 0.00 0.00 0.00 0.00 0.00 0.00 0.00 0.00 0.00 0.00 0.00 0.00 0.00 0.00 0.00 0.00 0.00 0.00 0.00 0.00 0.00 0.00 0.00 0.01 0.01 0.02 0.04 0.06 0.07 0.11 0.13
0.00 0.00 0.00 0.00 0.00 0.00 0.00 0.00 0.00 0.00 0.00 0.00 0.00 0.00 0.00 0.00 0.00 0.00 0.00 0.00 0.00 0.00 0.00 0.00 0.00 0.00 0.00 0.00 0.00 0.00 0.00 0.00 0.00 0.00 0.00 0.00 0.00 0.00 0.00 0.00 0.00 0.00 0.00 0.01 0.03 0.05 0.05 0.09 0.14
0.00 0.00 0.00 0.00 0.00 0.00 0.00 0.00 0.00 0.00 0.00 0.00 0.03 0.02 0.00 0.00 0.00 0.00 0.00 0.00 0.00 0.00 0.00 0.00 0.00 0.00 0.00 0.00 0.00 0.00 0.00 0.00 0.00 0.00 0.00 0.00 0.00 0.00 0.00 0.00 0.00 0.00 0.00 0.00 0.00 0.01 0.02 0.04 0.06
0.00 0.00 0.00 0.00 0.00 0.00 0.00 0.00 0.00 0.00 0.00 0.00 0.00 0.00 0.00 0.00 0.00 0.00 0.00 0.00 0.00 0.00 0.00 0.00 0.00 0.00 0.00 0.00 0.00 0.00 0.00 0.00 0.00 0.00 0.00 0.00 0.00 0.00 0.00 0.00 0.00 0.00 0.00 0.00 0.01 0.01 0.02 0.06 0.08
0.00 0.00 0.00 0.00 0.00 0.00 0.00 0.00 0.00 0.00 0.00 0.00 0.00 0.00 0.00 0.00 0.00 0.00 0.00 0.00 0.00 0.00 0.00 0.00 0.00 0.00 0.00 0.00 0.00 0.00 0.00 0.00 0.00 0.00 0.00 0.00 0.00 0.00 0.00 0.00 0.00 0.00 0.00 0.00 0.00 0.02 0.03 0.05 0.07
0.00 0.00 0.00 0.00 0.00 0.00 0.00 0.00 0.00 0.00 0.00 0.00 0.00 0.00 0.00 0.00 0.01 0.00 0.00 0.00 0.00 0.00 0.00 0.00 0.00 0.00 0.01 0.02 0.01 0.00 0.00 0.00 0.00 0.00 0.00 0.00 0.00 0.00 0.00 0.00 0.00 0.00 0.00 0.00 0.01 0.01 0.02 0.05 0.05
0.00 0.00 0.00 0.00 0.00 0.00 0.00 0.00 0.00 0.00 0.00 0.00 0.00 0.00 0.00 0.00 0.00 0.02 0.06 0.00 0.00 0.00 0.00 0.00 0.00 0.01 0.04 0.06 0.04 0.01 0.00 0.00 0.00 0.00 0.00 0.00 0.00 0.00 0.00 0.00 0.00 0.01 0.00 0.02 0.05 0.04 0.02 0.04 0.03
0.00 0.00 0.00 0.00 0.00 0.00 0.00 0.00 0.00 0.00 0.00 0.00 0.00 0.00 0.00 0.00 0.00 0.00 0.00 0.00 0.00 0.00 0.01 0.03 0.00 0.02 0.06 0.03 0.04 0.03 0.01 0.00 0.01 0.01 0.01 0.00 0.00 0.00 0.00 0.00 0.00 0.00 0.00 0.02 0.03 0.02 0.03 0.04 0.05